Time,TemperatureF,DewpointF,PressureIn,WindDirection,WindDirectionDegrees,WindSpeedMPH,WindSpeedGustMPH,Humidity,HourlyPrecipIn,Conditions,Clouds,dailyrainin,SoftwareType,DateUTC
2013-09-01 07:24:00,70.0,68.8,30.03,NE,35,0.0,0.0,96,0.00,,,0.00,Wunderground v.1.13,2013-09-01 11:24:00,
2013-09-01 07:25:00,70.0,68.8,30.03,NE,35,0.0,0.0,96,0.00,,,0.00,Wunderground v.1.13,2013-09-01 11:25:00,
2013-09-01 07:26:00,70.0,68.8,30.03,NE,35,0.0,0.0,96,0.00,,,0.00,Wunderground v.1.13,2013-09-01 11:26:00,
2013-09-01 07:31:00,70.1,68.9,30.03,NE,35,0.0,0.0,96,0.00,,,0.00,Wunderground v.1.13,2013-09-01 11:31:00,
2013-09-01 07:36:00,70.3,69.1,30.03,NE,35,0.0,0.0,96,0.00,,,0.00,Wunderground v.1.13,2013-09-01 11:36:00,
2013-09-01 07:41:00,70.6,69.1,30.03,South,169,0.0,0.0,95,0.00,,,0.00,Wunderground v.1.13,2013-09-01 11:41:00,
2013-09-01 07:46:00,70.7,69.2,30.03,South,169,0.0,0.0,95,0.00,,,0.00,Wunderground v.1.13,2013-09-01 11:46:00,
2013-09-01 07:51:00,70.9,69.4,30.02,South,169,0.0,0.0,95,0.00,,,0.00,Wunderground v.1.13,2013-09-01 11:51:00,
2013-09-01 07:56:00,71.1,69.6,30.02,South,169,0.0,0.0,95,0.00,,,0.00,Wunderground v.1.13,2013-09-01 11:56:00,
2013-09-01 08:01:00,71.1,69.6,30.02,South,169,0.0,0.0,95,0.00,,,0.00,Wunderground v.1.13,2013-09-01 12:01:00,
2013-09-01 08:06:00,71.2,69.7,30.02,South,169,0.0,0.0,95,0.00,,,0.00,Wunderground v.1.13,2013-09-01 12:06:00,
2013-09-01 08:11:00,71.2,69.7,30.02,South,169,0.0,0.0,95,0.00,,,0.00,Wunderground v.1.13,2013-09-01 12:11:00,
2013-09-01 08:16:00,71.2,69.4,30.02,South,169,0.0,0.0,94,0.00,,,0.00,Wunderground v.1.13,2013-09-01 12:16:00,
2013-09-01 08:21:00,71.2,69.4,30.03,South,169,0.0,0.0,94,0.00,,,0.00,Wunderground v.1.13,2013-09-01 12:21:00,
2013-09-01 08:26:00,71.2,69.4,30.03,South,169,0.0,0.0,94,0.00,,,0.00,Wunderground v.1.13,2013-09-01 12:26:00,
2013-09-01 08:31:00,71.1,69.6,30.03,South,169,0.0,0.0,95,0.00,,,0.00,Wunderground v.1.13,2013-09-01 12:31:00,
2013-09-01 08:36:00,71.1,69.6,30.04,South,169,0.0,0.0,95,0.00,,,0.00,Wunderground v.1.13,2013-09-01 12:36:00,
2013-09-01 08:41:00,71.1,69.6,30.04,South,169,0.0,0.0,95,0.00,,,0.00,Wunderground v.1.13,2013-09-01 12:41:00,
2013-09-01 08:46:00,71.1,69.6,30.04,South,169,0.0,0.0,95,0.00,,,0.00,Wunderground v.1.13,2013-09-01 12:46:00,
2013-09-01 08:51:00,71.2,69.7,30.04,South,169,0.0,0.0,95,0.00,,,0.00,Wunderground v.1.13,2013-09-01 12:51:00,
2013-09-01 08:56:00,71.3,69.8,30.04,South,169,0.0,0.0,95,0.00,,,0.00,Wunderground v.1.13,2013-09-01 12:56:00,
2013-09-01 09:01:00,71.4,69.9,30.05,South,169,0.0,0.0,95,0.00,,,0.00,Wunderground v.1.13,2013-09-01 13:01:00,
2013-09-01 09:06:00,71.6,70.1,30.05,South,169,0.0,0.0,95,0.00,,,0.00,Wunderground v.1.13,2013-09-01 13:06:00,
2013-09-01 09:11:00,71.8,70.3,30.05,South,169,0.0,0.0,95,0.00,,,0.00,Wunderground v.1.13,2013-09-01 13:11:00,
2013-09-01 09:17:00,71.8,70.0,30.06,South,169,0.0,0.0,94,0.00,,,0.00,Wunderground v.1.13,2013-09-01 13:17:00,
2013-09-01 09:22:00,71.9,70.1,30.05,South,169,0.0,0.0,94,0.00,,,0.00,Wunderground v.1.13,2013-09-01 13:22:00,
2013-09-01 09:27:00,72.0,70.2,30.05,South,169,0.0,0.0,94,0.00,,,0.00,Wunderground v.1.13,2013-09-01 13:27:00,
2013-09-01 09:32:00,72.2,70.1,30.05,South,169,0.0,0.0,93,0.00,,,0.00,Wunderground v.1.13,2013-09-01 13:32:00,
2013-09-01 09:37:00,72.2,69.1,30.05,South,169,0.0,0.0,90,0.00,,,0.00,Wunderground v.1.13,2013-09-01 13:37:00,
2013-09-01 09:42:00,72.3,68.9,30.05,South,169,0.0,0.0,89,0.00,,,0.00,Wunderground v.1.13,2013-09-01 13:42:00,
2013-09-01 09:47:00,72.4,68.6,30.05,South,169,0.0,0.0,88,0.00,,,0.00,Wunderground v.1.13,2013-09-01 13:47:00,
2013-09-01 09:52:00,72.6,69.2,30.05,South,169,0.0,0.0,89,0.00,,,0.00,Wunderground v.1.13,2013-09-01 13:52:00,
2013-09-01 09:57:00,72.7,69.3,30.05,South,169,0.0,0.0,89,0.00,,,0.00,Wunderground v.1.13,2013-09-01 13:57:00,
2013-09-01 10:02:00,72.9,69.8,30.05,South,169,0.0,0.0,90,0.00,,,0.00,Wunderground v.1.13,2013-09-01 14:02:00,
2013-09-01 10:07:00,73.1,69.7,30.05,South,169,0.0,0.0,89,0.00,,,0.00,Wunderground v.1.13,2013-09-01 14:07:00,
2013-09-01 10:12:00,73.3,69.5,30.05,South,169,0.0,0.0,88,0.00,,,0.00,Wunderground v.1.13,2013-09-01 14:12:00,
2013-09-01 10:17:00,73.4,69.3,30.04,South,169,0.0,0.0,87,0.00,,,0.00,Wunderground v.1.13,2013-09-01 14:17:00,
2013-09-01 10:22:00,73.6,69.8,30.04,South,169,0.0,0.0,88,0.00,,,0.00,Wunderground v.1.13,2013-09-01 14:22:00,
2013-09-01 10:27:00,73.8,70.4,30.04,South,169,0.0,0.0,89,0.00,,,0.00,Wunderground v.1.13,2013-09-01 14:27:00,
2013-09-01 10:32:00,74.0,70.6,30.04,South,169,0.0,0.0,89,0.00,,,0.00,Wunderground v.1.13,2013-09-01 14:32:00,
2013-09-01 10:37:00,74.1,71.0,30.05,South,169,0.0,0.0,90,0.00,,,0.00,Wunderground v.1.13,2013-09-01 14:37:00,
2013-09-01 10:42:00,74.1,70.3,30.06,South,169,0.0,0.0,88,0.00,,,0.00,Wunderground v.1.13,2013-09-01 14:42:00,
2013-09-01 10:47:00,74.2,70.7,30.06,South,169,0.0,0.0,89,0.00,,,0.00,Wunderground v.1.13,2013-09-01 14:47:00,
2013-09-01 10:52:00,74.3,70.8,30.06,South,169,0.0,0.0,89,0.00,,,0.00,Wunderground v.1.13,2013-09-01 14:52:00,
2013-09-01 10:57:00,74.5,71.0,30.06,South,169,0.0,0.0,89,0.00,,,0.00,Wunderground v.1.13,2013-09-01 14:57:00,
2013-09-01 11:02:00,74.7,70.9,30.06,South,169,0.0,0.0,88,0.00,,,0.00,Wunderground v.1.13,2013-09-01 15:02:00,
2013-09-01 11:07:00,74.9,71.1,30.06,South,169,0.0,0.0,88,0.00,,,0.00,Wunderground v.1.13,2013-09-01 15:07:00,
2013-09-01 11:12:00,75.2,71.1,30.07,South,169,0.0,0.0,87,0.00,,,0.00,Wunderground v.1.13,2013-09-01 15:12:00,
2013-09-01 11:17:00,75.7,71.2,30.06,South,169,0.0,0.0,86,0.00,,,0.00,Wunderground v.1.13,2013-09-01 15:17:00,
2013-09-01 11:22:00,76.0,71.5,30.06,South,169,0.0,0.0,86,0.00,,,0.00,Wunderground v.1.13,2013-09-01 15:22:00,
2013-09-01 11:27:00,76.2,72.0,30.06,South,169,0.0,0.0,87,0.00,,,0.00,Wunderground v.1.13,2013-09-01 15:27:00,
2013-09-01 11:32:00,76.2,71.4,30.06,South,169,0.0,0.0,85,0.00,,,0.00,Wunderground v.1.13,2013-09-01 15:32:00,
2013-09-01 11:37:00,76.3,71.8,30.06,South,169,0.0,0.0,86,0.00,,,0.00,Wunderground v.1.13,2013-09-01 15:37:00,
2013-09-01 11:42:00,76.6,72.4,30.06,South,169,0.0,0.0,87,0.00,,,0.00,Wunderground v.1.13,2013-09-01 15:42:00,
2013-09-01 11:47:00,76.6,71.4,30.06,South,169,0.0,0.0,84,0.00,,,0.00,Wunderground v.1.13,2013-09-01 15:47:00,
2013-09-01 11:52:00,76.7,72.5,30.06,South,169,0.0,0.0,87,0.00,,,0.00,Wunderground v.1.13,2013-09-01 15:52:00,
2013-09-01 11:57:00,76.7,72.5,30.07,South,169,0.0,0.0,87,0.51,,,0.02,Wunderground v.1.13,2013-09-01 15:57:00,
2013-09-01 12:02:00,75.9,71.8,30.07,SE,140,3.0,3.0,87,1.35,,,0.09,Wunderground v.1.13,2013-09-01 16:02:00,
2013-09-01 12:07:00,74.6,70.8,30.07,ESE,121,0.0,1.0,88,0.24,,,0.11,Wunderground v.1.13,2013-09-01 16:07:00,
2013-09-01 12:12:00,73.5,70.1,30.07,SSE,155,0.0,4.0,89,0.34,,,0.14,Wunderground v.1.13,2013-09-01 16:12:00,
2013-09-01 12:17:00,72.5,69.4,30.07,SSE,155,0.0,0.0,90,0.18,,,0.16,Wunderground v.1.13,2013-09-01 16:17:00,
2013-09-01 12:22:00,71.9,69.4,30.07,SSE,155,0.0,0.0,92,0.10,,,0.16,Wunderground v.1.13,2013-09-01 16:22:00,
2013-09-01 12:27:00,71.7,69.9,30.06,SSE,155,0.0,0.0,94,0.06,,,0.16,Wunderground v.1.13,2013-09-01 16:27:00,
2013-09-01 12:32:00,71.7,70.2,30.06,SSE,155,0.0,0.0,95,0.04,,,0.16,Wunderground v.1.13,2013-09-01 16:32:00,
2013-09-01 12:37:00,71.9,70.7,30.06,SSE,155,0.0,0.0,96,0.00,,,0.16,Wunderground v.1.13,2013-09-01 16:37:00,
2013-09-01 12:42:00,72.0,70.8,30.05,SSE,155,0.0,0.0,96,0.00,,,0.16,Wunderground v.1.13,2013-09-01 16:42:00,
2013-09-01 12:47:00,71.9,70.7,30.05,SSE,155,0.0,0.0,96,0.00,,,0.16,Wunderground v.1.13,2013-09-01 16:47:00,
2013-09-01 12:53:00,71.9,70.7,30.05,SSE,155,0.0,0.0,96,0.00,,,0.16,Wunderground v.1.13,2013-09-01 16:53:00,
2013-09-01 12:58:00,72.0,70.8,30.04,SSE,155,0.0,1.0,96,0.00,,,0.16,Wunderground v.1.13,2013-09-01 16:58:00,
2013-09-01 13:03:00,72.1,70.9,30.04,SSE,155,0.0,0.0,96,0.00,,,0.16,Wunderground v.1.13,2013-09-01 17:03:00,
2013-09-01 13:08:00,72.5,71.6,30.03,SSE,155,0.0,0.0,97,0.00,,,0.16,Wunderground v.1.13,2013-09-01 17:08:00,
2013-09-01 13:13:00,73.0,72.1,30.03,SSE,155,0.0,0.0,97,0.00,,,0.16,Wunderground v.1.13,2013-09-01 17:13:00,
2013-09-01 13:18:00,73.0,71.8,30.03,SSE,155,0.0,1.0,96,0.00,,,0.16,Wunderground v.1.13,2013-09-01 17:18:00,
2013-09-01 13:23:00,73.3,72.1,30.02,SSE,155,0.0,0.0,96,0.00,,,0.16,Wunderground v.1.13,2013-09-01 17:23:00,
2013-09-01 13:28:00,73.9,72.7,30.03,SSE,155,0.0,1.0,96,0.00,,,0.16,Wunderground v.1.13,2013-09-01 17:28:00,
2013-09-01 13:33:00,74.5,72.7,30.03,SSE,155,0.0,2.0,94,0.00,,,0.16,Wunderground v.1.13,2013-09-01 17:33:00,
2013-09-01 13:38:00,74.8,72.6,30.03,SSE,155,0.0,1.0,93,0.00,,,0.16,Wunderground v.1.13,2013-09-01 17:38:00,
2013-09-01 13:43:00,74.9,72.4,30.02,SSE,154,0.0,0.0,92,0.00,,,0.16,Wunderground v.1.13,2013-09-01 17:43:00,
2013-09-01 13:48:00,75.3,73.1,30.01,SSE,155,0.0,0.0,93,0.00,,,0.16,Wunderground v.1.13,2013-09-01 17:48:00,
2013-09-01 13:53:00,75.8,73.0,30.01,SSE,155,0.0,0.0,91,0.00,,,0.16,Wunderground v.1.13,2013-09-01 17:53:00,
2013-09-01 13:58:00,76.7,73.9,30.01,SSE,155,0.0,0.0,91,0.00,,,0.16,Wunderground v.1.13,2013-09-01 17:58:00,
2013-09-01 14:03:00,77.6,74.1,30.01,SSE,147,0.0,1.0,89,0.00,,,0.16,Wunderground v.1.13,2013-09-01 18:03:00,
2013-09-01 14:08:00,77.8,72.9,30.01,SE,145,0.0,1.0,85,0.00,,,0.16,Wunderground v.1.13,2013-09-01 18:08:00,
2013-09-01 14:13:00,77.8,72.9,30.01,SSW,209,0.0,1.0,85,0.00,,,0.16,Wunderground v.1.13,2013-09-01 18:13:00,
2013-09-01 14:18:00,77.6,72.7,30.01,SSW,209,0.0,1.0,85,0.00,,,0.16,Wunderground v.1.13,2013-09-01 18:18:00,
2013-09-01 14:23:00,77.5,72.6,30.01,SSW,209,0.0,0.0,85,0.00,,,0.16,Wunderground v.1.13,2013-09-01 18:23:00,
2013-09-01 14:28:00,77.4,73.2,30.02,SSW,209,0.0,0.0,87,0.00,,,0.16,Wunderground v.1.13,2013-09-01 18:28:00,
2013-09-01 14:33:00,77.2,72.3,30.02,SSW,209,0.0,1.0,85,0.00,,,0.16,Wunderground v.1.13,2013-09-01 18:33:00,
2013-09-01 14:38:00,77.3,72.4,30.01,SSW,209,0.0,0.0,85,0.00,,,0.16,Wunderground v.1.13,2013-09-01 18:38:00,
2013-09-01 14:44:00,77.6,73.4,30.01,SSW,209,0.0,1.0,87,0.00,,,0.16,Wunderground v.1.13,2013-09-01 18:44:00,
2013-09-01 14:49:00,78.0,72.1,30.01,SSW,209,0.0,0.0,82,0.00,,,0.16,Wunderground v.1.13,2013-09-01 18:49:00,
2013-09-01 14:54:00,78.4,73.9,30.02,SSW,209,0.0,0.0,86,0.00,,,0.16,Wunderground v.1.13,2013-09-01 18:54:00,
2013-09-01 14:59:00,78.9,72.6,30.02,SSW,209,0.0,0.0,81,0.00,,,0.16,Wunderground v.1.13,2013-09-01 18:59:00,
2013-09-01 15:04:00,79.4,73.4,30.01,SSW,209,0.0,1.0,82,0.00,,,0.16,Wunderground v.1.13,2013-09-01 19:04:00,
2013-09-01 15:09:00,79.8,73.4,30.02,SSW,209,0.0,0.0,81,0.00,,,0.16,Wunderground v.1.13,2013-09-01 19:09:00,
2013-09-01 15:14:00,80.2,72.3,30.02,SSW,209,0.0,1.0,77,0.00,,,0.16,Wunderground v.1.13,2013-09-01 19:14:00,
2013-09-01 15:19:00,80.5,72.6,30.01,SSW,209,0.0,0.0,77,0.00,,,0.16,Wunderground v.1.13,2013-09-01 19:19:00,
2013-09-01 15:24:00,80.9,73.8,30.01,SSE,147,0.0,0.0,79,0.00,,,0.16,Wunderground v.1.13,2013-09-01 19:24:00,
2013-09-01 15:29:00,81.2,72.5,30.00,SSE,147,0.0,0.0,75,0.00,,,0.16,Wunderground v.1.13,2013-09-01 19:29:00,
2013-09-01 15:34:00,81.4,73.1,30.00,SSE,147,0.0,0.0,76,0.00,,,0.16,Wunderground v.1.13,2013-09-01 19:34:00,
2013-09-01 15:39:00,81.3,72.2,30.00,South,175,0.0,1.0,74,0.00,,,0.16,Wunderground v.1.13,2013-09-01 19:39:00,
2013-09-01 15:44:00,81.4,73.5,30.00,South,175,0.0,0.0,77,0.00,,,0.16,Wunderground v.1.13,2013-09-01 19:44:00,
2013-09-01 15:49:00,81.5,72.0,30.00,South,175,0.0,0.0,73,0.00,,,0.16,Wunderground v.1.13,2013-09-01 19:49:00,
2013-09-01 15:54:00,81.6,72.5,30.00,South,176,0.0,0.0,74,0.00,,,0.16,Wunderground v.1.13,2013-09-01 19:54:00,
2013-09-01 15:59:00,81.8,73.5,29.99,South,176,0.0,0.0,76,0.00,,,0.16,Wunderground v.1.13,2013-09-01 19:59:00,
2013-09-01 16:04:00,82.0,72.9,29.98,South,176,0.0,0.0,74,0.00,,,0.16,Wunderground v.1.13,2013-09-01 20:04:00,
2013-09-01 16:09:00,82.3,72.0,29.98,South,175,0.0,1.0,71,0.00,,,0.16,Wunderground v.1.13,2013-09-01 20:09:00,
2013-09-01 16:14:00,82.3,72.4,29.98,South,175,0.0,0.0,72,0.00,,,0.16,Wunderground v.1.13,2013-09-01 20:14:00,
2013-09-01 16:19:00,82.3,72.0,29.98,NNE,31,0.0,2.0,71,0.00,,,0.16,Wunderground v.1.13,2013-09-01 20:19:00,
2013-09-01 16:24:00,82.2,73.9,29.98,NNE,31,0.0,0.0,76,0.00,,,0.16,Wunderground v.1.13,2013-09-01 20:24:00,
2013-09-01 16:29:00,82.0,72.9,29.98,NNE,31,0.0,1.0,74,0.00,,,0.16,Wunderground v.1.13,2013-09-01 20:29:00,
2013-09-01 16:34:00,81.7,72.6,29.98,ENE,68,0.0,1.0,74,0.00,,,0.16,Wunderground v.1.13,2013-09-01 20:34:00,
2013-09-01 16:39:00,81.3,72.6,29.98,ENE,68,0.0,1.0,75,0.00,,,0.16,Wunderground v.1.13,2013-09-01 20:39:00,
2013-09-01 16:44:00,80.9,71.8,29.98,ENE,69,0.0,0.0,74,0.00,,,0.16,Wunderground v.1.13,2013-09-01 20:44:00,
2013-09-01 16:49:00,80.7,72.4,29.97,ENE,69,0.0,0.0,76,0.00,,,0.16,Wunderground v.1.13,2013-09-01 20:49:00,
2013-09-01 16:54:00,80.9,73.0,29.97,ENE,68,0.0,0.0,77,0.00,,,0.16,Wunderground v.1.13,2013-09-01 20:54:00,
2013-09-01 16:59:00,81.2,73.3,29.97,ENE,68,0.0,0.0,77,0.00,,,0.16,Wunderground v.1.13,2013-09-01 20:59:00,
2013-09-01 17:04:00,81.5,73.2,29.97,ENE,69,0.0,1.0,76,0.00,,,0.16,Wunderground v.1.13,2013-09-01 21:04:00,
2013-09-01 17:09:00,81.6,73.7,29.97,ENE,69,0.0,0.0,77,0.00,,,0.16,Wunderground v.1.13,2013-09-01 21:09:00,
2013-09-01 17:14:00,81.6,73.7,29.96,ENE,69,0.0,0.0,77,0.00,,,0.16,Wunderground v.1.13,2013-09-01 21:14:00,
2013-09-01 17:19:00,81.1,73.2,29.96,ESE,111,0.0,2.0,77,0.00,,,0.16,Wunderground v.1.13,2013-09-01 21:19:00,
2013-09-01 17:24:00,80.4,73.3,29.98,SE,126,0.0,1.0,79,0.00,,,0.17,Wunderground v.1.13,2013-09-01 21:24:00,
2013-09-01 17:29:00,78.2,71.2,29.98,North,355,0.0,3.0,79,0.73,,,0.37,Wunderground v.1.13,2013-09-01 21:29:00,
2013-09-01 17:34:00,75.6,69.0,29.98,NNW,331,0.0,3.0,80,0.32,,,0.48,Wunderground v.1.13,2013-09-01 21:34:00,
2013-09-01 17:39:00,74.4,70.9,29.98,NNW,331,0.0,1.0,89,0.11,,,0.48,Wunderground v.1.13,2013-09-01 21:39:00,
2013-09-01 17:44:00,74.0,71.2,29.97,NNW,331,0.0,0.0,91,0.06,,,0.48,Wunderground v.1.13,2013-09-01 21:44:00,
2013-09-01 17:49:00,73.9,72.1,29.98,NNW,331,0.0,0.0,94,0.04,,,0.48,Wunderground v.1.13,2013-09-01 21:49:00,
2013-09-01 17:54:00,73.9,72.1,29.98,NNW,331,0.0,1.0,94,0.00,,,0.48,Wunderground v.1.13,2013-09-01 21:54:00,
2013-09-01 18:00:00,74.0,72.2,29.98,NNW,331,0.0,0.0,94,0.00,,,0.48,Wunderground v.1.13,2013-09-01 22:00:00,
2013-09-01 18:05:00,74.1,72.6,29.98,NNW,331,0.0,0.0,95,0.00,,,0.48,Wunderground v.1.13,2013-09-01 22:05:00,
2013-09-01 18:10:00,74.1,72.6,29.98,NNW,331,0.0,0.0,95,0.00,,,0.48,Wunderground v.1.13,2013-09-01 22:10:00,
2013-09-01 18:15:00,74.1,72.6,29.99,NNW,331,0.0,0.0,95,0.00,,,0.48,Wunderground v.1.13,2013-09-01 22:15:00,
2013-09-01 18:20:00,74.1,72.6,29.98,NNW,331,0.0,0.0,95,0.00,,,0.48,Wunderground v.1.13,2013-09-01 22:20:00,
2013-09-01 18:25:00,74.0,72.8,29.99,NNW,331,0.0,0.0,96,0.00,,,0.48,Wunderground v.1.13,2013-09-01 22:25:00,
2013-09-01 18:30:00,73.6,71.4,29.99,NE,34,1.0,1.0,93,0.00,,,0.48,Wunderground v.1.13,2013-09-01 22:30:00,
2013-09-01 18:35:00,72.8,70.3,29.99,NE,34,0.0,0.0,92,0.00,,,0.48,Wunderground v.1.13,2013-09-01 22:35:00,
2013-09-01 18:40:00,72.1,69.6,29.99,NE,34,0.0,0.0,92,0.00,,,0.48,Wunderground v.1.13,2013-09-01 22:40:00,
2013-09-01 18:45:00,71.5,69.4,29.98,NE,34,0.0,0.0,93,0.00,,,0.48,Wunderground v.1.13,2013-09-01 22:45:00,
2013-09-01 18:50:00,71.3,69.5,29.98,NE,34,0.0,0.0,94,0.00,,,0.49,Wunderground v.1.13,2013-09-01 22:50:00,
2013-09-01 18:55:00,71.0,69.5,29.99,NE,34,0.0,0.0,95,0.00,,,0.49,Wunderground v.1.13,2013-09-01 22:55:00,
2013-09-01 19:00:00,70.8,69.3,29.99,NE,34,0.0,0.0,95,0.00,,,0.49,Wunderground v.1.13,2013-09-01 23:00:00,
2013-09-01 19:05:00,70.6,69.1,29.98,NE,34,0.0,0.0,95,0.00,,,0.49,Wunderground v.1.13,2013-09-01 23:05:00,
2013-09-01 19:10:00,70.4,69.2,29.98,NE,34,0.0,0.0,96,0.00,,,0.49,Wunderground v.1.13,2013-09-01 23:10:00,
2013-09-01 19:15:00,70.3,69.1,29.98,NE,34,0.0,0.0,96,0.00,,,0.50,Wunderground v.1.13,2013-09-01 23:15:00,
2013-09-01 19:20:00,70.2,69.0,29.99,NE,34,0.0,0.0,96,0.00,,,0.50,Wunderground v.1.13,2013-09-01 23:20:00,
2013-09-01 19:25:00,70.1,68.9,29.99,NE,34,0.0,0.0,96,0.00,,,0.50,Wunderground v.1.13,2013-09-01 23:25:00,
2013-09-01 19:31:00,69.9,68.7,30.00,NE,34,0.0,0.0,96,0.00,,,0.50,Wunderground v.1.13,2013-09-01 23:31:00,
2013-09-01 19:36:00,69.7,68.5,29.99,NE,34,0.0,0.0,96,0.00,,,0.50,Wunderground v.1.13,2013-09-01 23:36:00,
2013-09-01 19:41:00,69.6,68.4,29.99,NE,34,0.0,0.0,96,0.00,,,0.50,Wunderground v.1.13,2013-09-01 23:41:00,
2013-09-01 19:46:00,69.4,68.2,29.99,NE,34,0.0,0.0,96,0.00,,,0.50,Wunderground v.1.13,2013-09-01 23:46:00,
2013-09-01 19:51:00,69.3,68.1,30.00,NE,34,0.0,0.0,96,0.00,,,0.50,Wunderground v.1.13,2013-09-01 23:51:00,
2013-09-01 19:56:00,69.3,68.4,30.00,NE,34,0.0,0.0,97,0.00,,,0.50,Wunderground v.1.13,2013-09-01 23:56:00,
2013-09-01 20:01:00,69.1,67.9,30.00,NE,34,0.0,0.0,96,0.00,,,0.50,Wunderground v.1.13,2013-09-02 00:01:00,
2013-09-01 20:06:00,68.9,67.7,29.99,NE,34,0.0,0.0,96,0.00,,,0.50,Wunderground v.1.13,2013-09-02 00:06:00,
2013-09-01 20:11:00,68.8,67.6,29.99,NE,34,0.0,0.0,96,0.00,,,0.50,Wunderground v.1.13,2013-09-02 00:11:00,
2013-09-01 20:16:00,68.7,67.8,29.99,NE,34,0.0,0.0,97,0.00,,,0.50,Wunderground v.1.13,2013-09-02 00:16:00,
2013-09-01 20:21:00,68.7,67.8,30.00,NE,34,0.0,0.0,97,0.00,,,0.50,Wunderground v.1.13,2013-09-02 00:21:00,
2013-09-01 20:26:00,68.7,67.8,30.00,NE,34,0.0,0.0,97,0.00,,,0.50,Wunderground v.1.13,2013-09-02 00:26:00,
2013-09-01 20:31:00,68.8,67.9,30.00,NE,34,0.0,0.0,97,0.00,,,0.50,Wunderground v.1.13,2013-09-02 00:31:00,
2013-09-01 20:36:00,68.8,67.9,30.00,NE,34,0.0,0.0,97,0.00,,,0.50,Wunderground v.1.13,2013-09-02 00:36:00,
2013-09-01 20:41:00,68.6,67.7,30.00,NE,34,0.0,0.0,97,0.00,,,0.50,Wunderground v.1.13,2013-09-02 00:41:00,
2013-09-01 20:46:00,68.5,67.6,30.00,NE,34,0.0,0.0,97,0.00,,,0.50,Wunderground v.1.13,2013-09-02 00:46:00,
2013-09-01 20:51:00,68.5,67.6,30.00,NE,34,0.0,0.0,97,0.00,,,0.50,Wunderground v.1.13,2013-09-02 00:51:00,
2013-09-01 20:56:00,68.5,67.9,30.01,NE,34,0.0,0.0,98,0.00,,,0.50,Wunderground v.1.13,2013-09-02 00:56:00,
2013-09-01 21:01:00,68.5,67.9,30.01,NE,34,0.0,0.0,98,0.00,,,0.50,Wunderground v.1.13,2013-09-02 01:01:00,
2013-09-01 21:06:00,68.5,67.9,30.01,NE,34,0.0,0.0,98,0.00,,,0.50,Wunderground v.1.13,2013-09-02 01:06:00,
2013-09-01 21:11:00,68.5,67.9,30.02,NE,34,0.0,0.0,98,0.00,,,0.50,Wunderground v.1.13,2013-09-02 01:11:00,
2013-09-01 21:16:00,68.5,67.9,30.02,NE,34,0.0,0.0,98,0.00,,,0.50,Wunderground v.1.13,2013-09-02 01:16:00,
2013-09-01 21:21:00,68.6,68.0,30.02,NE,34,0.0,0.0,98,0.00,,,0.50,Wunderground v.1.13,2013-09-02 01:21:00,
2013-09-01 21:26:00,68.6,68.0,30.02,NE,34,0.0,0.0,98,0.00,,,0.50,Wunderground v.1.13,2013-09-02 01:26:00,
2013-09-01 21:31:00,68.4,67.8,30.02,NE,34,0.0,0.0,98,0.00,,,0.50,Wunderground v.1.13,2013-09-02 01:31:00,
2013-09-01 21:36:00,68.3,67.7,30.02,NE,34,0.0,0.0,98,0.00,,,0.50,Wunderground v.1.13,2013-09-02 01:36:00,
2013-09-01 21:42:00,68.3,67.7,30.03,NE,34,0.0,0.0,98,0.00,,,0.50,Wunderground v.1.13,2013-09-02 01:42:00,
2013-09-01 21:47:00,68.3,67.7,30.03,NE,34,0.0,0.0,98,0.00,,,0.50,Wunderground v.1.13,2013-09-02 01:47:00,
2013-09-01 21:52:00,68.3,67.7,30.03,NE,34,0.0,0.0,98,0.00,,,0.50,Wunderground v.1.13,2013-09-02 01:52:00,
2013-09-01 21:57:00,68.3,67.7,30.04,NE,34,0.0,0.0,98,0.00,,,0.50,Wunderground v.1.13,2013-09-02 01:57:00,
2013-09-01 22:02:00,68.4,67.8,30.04,NE,34,0.0,0.0,98,0.00,,,0.50,Wunderground v.1.13,2013-09-02 02:02:00,
2013-09-01 22:07:00,68.4,67.8,30.04,NE,34,0.0,0.0,98,0.00,,,0.50,Wunderground v.1.13,2013-09-02 02:07:00,
2013-09-01 22:12:00,68.4,67.8,30.04,NE,34,0.0,0.0,98,0.00,,,0.50,Wunderground v.1.13,2013-09-02 02:12:00,
2013-09-01 22:17:00,68.5,67.9,30.04,NE,34,0.0,0.0,98,0.00,,,0.50,Wunderground v.1.13,2013-09-02 02:17:00,
2013-09-01 22:22:00,68.5,67.9,30.04,NE,34,0.0,0.0,98,0.00,,,0.50,Wunderground v.1.13,2013-09-02 02:22:00,
2013-09-01 22:27:00,68.4,67.8,30.04,NE,34,0.0,0.0,98,0.00,,,0.50,Wunderground v.1.13,2013-09-02 02:27:00,
2013-09-01 22:32:00,68.1,67.5,30.04,NE,34,0.0,0.0,98,0.00,,,0.50,Wunderground v.1.13,2013-09-02 02:32:00,
2013-09-01 22:37:00,67.9,67.3,30.04,NE,34,0.0,0.0,98,0.00,,,0.50,Wunderground v.1.13,2013-09-02 02:37:00,
2013-09-01 22:42:00,67.7,66.8,30.04,NE,34,0.0,0.0,97,0.00,,,0.50,Wunderground v.1.13,2013-09-02 02:42:00,
2013-09-01 22:47:00,67.6,66.7,30.04,NE,34,0.0,0.0,97,0.00,,,0.50,Wunderground v.1.13,2013-09-02 02:47:00,
2013-09-01 22:52:00,67.6,67.0,30.05,NE,34,0.0,0.0,98,0.00,,,0.50,Wunderground v.1.13,2013-09-02 02:52:00,
2013-09-01 22:57:00,67.6,67.0,30.04,NE,34,0.0,0.0,98,0.00,,,0.50,Wunderground v.1.13,2013-09-02 02:57:00,
2013-09-01 23:02:00,67.7,67.1,30.04,NE,34,0.0,0.0,98,0.00,,,0.50,Wunderground v.1.13,2013-09-02 03:02:00,
2013-09-01 23:07:00,67.8,67.2,30.04,NE,34,0.0,0.0,98,0.00,,,0.50,Wunderground v.1.13,2013-09-02 03:07:00,
2013-09-01 23:12:00,67.9,67.3,30.04,NE,34,0.0,0.0,98,0.00,,,0.50,Wunderground v.1.13,2013-09-02 03:12:00,
2013-09-01 23:17:00,67.9,67.3,30.04,NE,34,0.0,0.0,98,0.00,,,0.50,Wunderground v.1.13,2013-09-02 03:17:00,
2013-09-01 23:22:00,68.0,67.4,30.04,NE,34,0.0,0.0,98,0.00,,,0.50,Wunderground v.1.13,2013-09-02 03:22:00,
2013-09-01 23:27:00,68.0,67.4,30.04,NE,34,0.0,0.0,98,0.00,,,0.50,Wunderground v.1.13,2013-09-02 03:27:00,
2013-09-01 23:32:00,68.0,67.4,30.04,NE,34,0.0,0.0,98,0.00,,,0.50,Wunderground v.1.13,2013-09-02 03:32:00,
2013-09-01 23:37:00,68.0,67.4,30.04,NE,34,0.0,0.0,98,0.00,,,0.50,Wunderground v.1.13,2013-09-02 03:37:00,
2013-09-01 23:42:00,67.9,67.3,30.04,NE,34,0.0,0.0,98,0.00,,,0.50,Wunderground v.1.13,2013-09-02 03:42:00,
2013-09-01 23:47:00,67.9,67.3,30.04,NE,34,0.0,0.0,98,0.00,,,0.50,Wunderground v.1.13,2013-09-02 03:47:00,
2013-09-01 23:52:00,67.8,67.2,30.04,NE,34,0.0,0.0,98,0.00,,,0.50,Wunderground v.1.13,2013-09-02 03:52:00,
2013-09-01 23:57:00,67.9,67.3,30.04,NE,34,0.0,0.0,98,0.00,,,0.50,Wunderground v.1.13,2013-09-02 03:57:00,